This is the latest recevied weather packets stored in our database for station/object HP1COO-13. If no packets are shown the sender has not sent any weather packets the latest 10 day(s).
| Time | Temp. | Humidity | Pressure | Rain* | Wind** | Luminosity | Snow |
|---|---|---|---|---|---|---|---|
| 1787583525 | 31.67° C | 72% | 1008.5 hPa | 0 mm | - | - | - |
| 1787582892 | 32.22° C | 73% | 1008.6 hPa | 0 mm | - | - | - |
| 1787582259 | 31.67° C | 72% | 1008.5 hPa | 0 mm | - | - | - |
| 1787581626 | 31.67° C | 73% | 1008.5 hPa | 0 mm | - | - | - |
| 1787580993 | 31.67° C | 73% | 1008.5 hPa | 0 mm | - | - | - |
| 1787580360 | 31.11° C | 75% | 1008.4 hPa | 0 mm | - | - | - |
| 1787579727 | 31.67° C | 74% | 1008.6 hPa | 0 mm | - | - | - |
| 1787579094 | 30.56° C | 75% | 1008.7 hPa | 0 mm | - | - | - |
| 1787578461 | 30.56° C | 80% | 1008.9 hPa | 0 mm | - | - | - |
| 1787577828 | 30° C | 81% | 1008.7 hPa | 0 mm | - | - | - |
| 1787577194 | 29.44° C | 82% | 1008.7 hPa | 0 mm | - | - | - |
| 1787576562 | 28.89° C | 87% | 1008.5 hPa | 0 mm | - | - | - |
| 1787575929 | 27.78° C | 90% | 1008.6 hPa | 0 mm | - | - | - |
| 1787575296 | 27.78° C | 90% | 1008.6 hPa | 0 mm | - | - | - |
| 1787574663 | 27.22° C | 92% | 1008.4 hPa | 0 mm | - | - | - |
| 1787574031 | 26.67° C | 93% | 1008.2 hPa | 0 mm | - | - | - |
| 1787573397 | 26.11° C | 94% | 1008.3 hPa | 0 mm | - | - | - |
| 1787572764 | 26.11° C | 95% | 1007.9 hPa | 0 mm | - | - | - |
| 1787572131 | 26.11° C | 96% | 1007.6 hPa | 0 mm | - | - | - |
| 1787571498 | 26.11° C | 96% | 1007.5 hPa | 0 mm | - | - | - |
| 1787570865 | 25.56° C | 96% | 1007.5 hPa | 0 mm | - | - | - |
| 1787570232 | 25.56° C | 97% | 1007.5 hPa | 0 mm | - | - | - |
| 1787569599 | 25.56° C | 96% | 1007.4 hPa | 0 mm | - | - | - |
| 1787568966 | 26.11° C | 96% | 1007.3 hPa | 0 mm | - | - | - |
| 1787568333 | 26.11° C | 96% | 1006.9 hPa | 0 mm | - | - | - |
* Rain latest hour (hover to see other rain measurements)
** Current wind speed in m/s (hover to see current wind gust speed)